W7YP Weather Reports


time (UTC)temp
C
wind
direction
speed
KPH
gust
KPH
rain 1hr
cm
rain 24hr
cm
rain mn
cm
humidity
%
barometer
mb
20260507020617 16 292 0.0 0.0 0.00 0.00 0.00 54 1011.2
20260507020110 16 292 0.0 0.0 0.00 0.00 0.00 53 1011.4
20260507015553 16 292 0.0 0.0 0.00 0.00 0.00 52 1011.2
20260507015321 16 292 0.0 1.6 0.00 0.00 0.00 51 1011.2
20260507015045 16 292 0.0 4.8 0.00 0.00 0.00 50 1011.2
20260507014052 16 322 1.6 9.7 0.00 0.00 0.00 49 1011.2
20260507013603 16 5 1.6 12.9 0.00 0.00 0.00 47 1011.2
20260507013054 17 273 4.8 12.9 0.00 0.00 0.00 47 1011.2
20260507012548 17 207 1.6 9.7 0.00 0.00 0.00 47 1011.4
20260507012311 17 248 1.6 4.8 0.00 0.00 0.00 47 1011.4
20260507011549 17 313 1.6 8.0 0.00 0.00 0.00 47 1011.5
20260507011313 17 326 3.2 8.0 0.00 0.00 0.00 46 1011.5
20260507010754 17 321 0.0 4.8 0.00 0.00 0.00 46 1011.6
20260507010024 17 321 0.0 6.4 0.00 0.00 0.00 47 1011.5
20260507005525 17 321 1.6 6.4 0.00 0.00 0.00 45 1011.5
20260507005248 17 334 1.6 6.4 0.00 0.00 0.00 45 1011.6
20260507004520 17 160 0.0 4.8 0.00 0.00 0.00 45 1011.5
20260507004020 17 195 0.0 11.3 0.00 0.00 0.00 46 1011.6
20260507003520 17 153 0.0 11.3 0.00 0.00 0.00 45 1011.7
20260507003023 17 0 0.0 11.3 0.00 0.00 0.00 44 1011.6
20260507002518 17 214 3.2 11.3 0.00 0.00 0.00 43 1011.6
20260507002008 17 319 1.6 9.7 0.00 0.00 0.00 44 1011.7
20260507001505 17 310 0.0 9.7 0.00 0.00 0.00 43 1011.6
20260507001006 17 340 0.0 11.3 0.00 0.00 0.00 43 1011.7
20260507000506 17 237 1.6 11.3 0.00 0.00 0.00 43 1011.7
20260507000008 17 196 1.6 9.7 0.00 0.00 0.00 45 1011.8
20260506235507 17 216 1.6 8.0 0.00 0.00 0.00 44 1011.9
20260506235231 17 336 0.0 3.2 0.00 0.00 0.00 44 1011.9
20260506234502 17 13 0.0 4.8 0.00 0.00 0.00 45 1011.9
20260506233952 17 19 0.0 4.8 0.00 0.00 0.00 43 1012.0
20260506233452 17 132 0.0 3.2 0.00 0.00 0.00 45 1011.9
20260506232951 17 132 0.0 6.4 0.00 0.00 0.00 43 1011.9
20260506232452 17 322 0.0 6.4 0.00 0.00 0.00 43 1012.0
20260506232223 17 346 0.0 4.8 0.00 0.00 0.00 43 1011.9
20260506231711 18 302 0.0 9.7 0.00 0.00 0.00 43 1012.0
20260506230948 18 329 1.6 9.7 0.00 0.00 0.00 41 1012.0
20260506230448 18 180 0.0 4.8 0.00 0.00 0.00 42 1012.1
20260506230215 18 191 0.0 4.8 0.00 0.00 0.00 40 1012.0
20260506225449 19 349 1.6 11.3 0.00 0.00 0.00 39 1012.2
20260506224943 19 339 0.0 11.3 0.00 0.00 0.00 39 1012.2
20260506224439 20 307 1.6 11.3 0.00 0.00 0.00 37 1012.2
20260506223923 20 321 1.6 11.3 0.00 0.00 0.00 39 1012.2
20260506223418 20 259 0.0 4.8 0.00 0.00 0.00 40 1012.1
20260506222913 19 267 0.0 4.8 0.00 0.00 0.00 41 1012.4
20260506222414 19 14 0.0 6.4 0.00 0.00 0.00 38 1012.4
20260506221916 19 17 0.0 6.4 0.00 0.00 0.00 37 1012.5
20260506221410 19 327 0.0 8.0 0.00 0.00 0.00 39 1012.7
20260506221124 19 327 1.6 8.0 0.00 0.00 0.00 38 1012.7
20260506220355 19 322 0.0 4.8 0.00 0.00 0.00 41 1012.8
20260506215854 19 322 0.0 6.4 0.00 0.00 0.00 39 1012.8
20260506215350 19 0 0.0 6.4 0.00 0.00 0.00 39 1012.8
20260506214850 19 334 1.6 9.7 0.00 0.00 0.00 38 1012.9
20260506214350 18 32 3.2 9.7 0.00 0.00 0.00 38 1013.0
20260506213850 18 323 3.2 8.0 0.00 0.00 0.00 39 1013.1
20260506213627 18 232 1.6 6.4 0.00 0.00 0.00 38 1013.3
20260506212848 18 33 0.0 6.4 0.00 0.00 0.00 39 1013.4
20260506212345 18 25 0.0 12.9 0.00 0.00 0.00 38 1013.4
20260506211841 18 40 1.6 12.9 0.00 0.00 0.00 39 1013.5
20260506211340 18 211 1.6 11.3 0.00 0.00 0.00 38 1013.5
20260506210841 18 196 1.6 11.3 0.00 0.00 0.00 39 1013.5
20260506210341 17 300 1.6 17.7 0.00 0.00 0.00 38 1013.6
20260506205341 17 148 3.2 12.9 0.00 0.00 0.00 38 1013.7
20260506204837 17 325 0.0 16.1 0.00 0.00 0.00 38 1013.8
20260506204337 17 150 1.6 16.1 0.00 0.00 0.00 39 1013.8
20260506203837 17 155 3.2 14.5 0.00 0.00 0.00 39 1014.0
20260506203337 17 126 6.4 14.5 0.00 0.00 0.00 38 1014.0
20260506203104 17 180 4.8 14.5 0.00 0.00 0.00 39 1014.1
20260506202337 17 144 1.6 16.1 0.00 0.00 0.00 38 1014.0
20260506201833 17 169 1.6 16.1 0.00 0.00 0.00 42 1014.0
20260506201328 16 304 1.6 14.5 0.00 0.00 0.00 39 1014.3
20260506200823 16 192 1.6 16.1 0.00 0.00 0.00 40 1014.3
20260506200322 16 263 3.2 16.1 0.00 0.00 0.00 39 1014.4
20260506195823 16 90 3.2 16.1 0.00 0.00 0.00 39 1014.5
20260506195541 16 199 1.6 17.7 0.00 0.00 0.00 39 1014.6
20260506194813 16 117 6.4 17.7 0.00 0.00 0.00 38 1014.5
20260506194313 16 211 3.2 12.9 0.00 0.00 0.00 40 1014.7
20260506193813 16 277 1.6 16.1 0.00 0.00 0.00 40 1014.7
20260506193303 16 335 1.6 19.3 0.00 0.00 0.00 41 1014.9
20260506192804 16 215 3.2 19.3 0.00 0.00 0.00 40 1015.0
20260506192307 15 174 1.6 14.5 0.00 0.00 0.00 40 1015.0
20260506191757 15 306 1.6 14.5 0.00 0.00 0.00 39 1015.1
20260506191255 15 105 4.8 12.9 0.00 0.00 0.00 39 1015.1
20260506190755 15 317 0.0 16.1 0.00 0.00 0.00 42 1015.1
20260506190249 15 352 3.2 16.1 0.00 0.00 0.00 42 1015.3
20260506185750 15 254 3.2 14.5 0.00 0.00 0.00 40 1015.3
20260506185250 15 240 3.2 11.3 0.00 0.00 0.00 41 1015.4
20260506184750 15 348 0.0 8.0 0.00 0.00 0.00 40 1015.5
20260506184251 15 312 3.2 8.0 0.00 0.00 0.00 42 1015.6
20260506184018 14 259 0.0 11.3 0.00 0.00 0.00 43 1015.7
20260506183250 14 211 1.6 11.3 0.00 0.00 0.00 41 1015.8
20260506182746 14 248 0.0 12.9 0.00 0.00 0.00 41 1015.9
20260506182241 14 348 4.8 12.9 0.00 0.00 0.00 41 1015.9
20260506182002 14 13 3.2 12.9 0.00 0.00 0.00 41 1016.0
20260506181241 14 257 3.2 11.3 0.00 0.00 0.00 41 1016.2
20260506180743 14 297 3.2 11.3 0.00 0.00 0.00 40 1016.2
20260506180242 14 0 1.6 8.0 0.00 0.00 0.00 41 1016.2
20260506180005 14 18 3.2 8.0 0.00 0.00 0.00 42 1016.3
20260506175237 13 320 0.0 8.0 0.00 0.00 0.00 41 1016.3
20260506174737 13 203 1.6 9.7 0.00 0.00 0.00 41 1016.5
20260506174237 13 19 1.6 9.7 0.00 0.00 0.00 43 1016.6
20260506173733 12 9 3.2 4.8 0.00 0.00 0.00 44 1016.7
20260506173227 12 15 0.0 6.4 0.00 0.00 0.00 44 1016.7
20260506172728 12 311 1.6 6.4 0.00 0.00 0.00 45 1016.8
20260506172228 12 177 1.6 4.8 0.00 0.00 0.00 44 1016.8
20260506171728 11 132 1.6 8.0 0.00 0.00 0.00 48 1016.9
20260506171223 11 211 0.0 8.0 0.00 0.00 0.00 46 1016.8
20260506170723 11 162 1.6 6.4 0.00 0.00 0.00 47 1016.9
20260506170703 11 119 0.0 8.0 0.00 0.00 0.00 46 1017.0
20260506165718 11 168 0.0 8.0 0.00 0.00 0.00 48 1017.0
20260506165219 10 125 1.6 8.0 0.00 0.00 0.00 48 1017.0
20260506164722 10 143 1.6 8.0 0.00 0.00 0.00 49 1017.3
20260506164217 10 168 3.2 8.0 0.00 0.00 0.00 49 1017.3
20260506163715 10 145 3.2 6.4 0.00 0.00 0.00 51 1017.4
20260506163214 10 142 0.0 6.4 0.00 0.00 0.00 53 1017.5
20260506162709 9 148 1.6 6.4 0.00 0.00 0.00 53 1017.5
20260506162209 9 112 1.6 8.0 0.00 0.00 0.00 53 1017.5
20260506161710 9 175 1.6 9.7 0.00 0.00 0.00 53 1017.6
20260506161434 8 102 0.0 9.7 0.00 0.00 0.00 55 1017.7
20260506160713 8 225 1.6 6.4 0.00 0.00 0.00 55 1017.7
20260506160206 8 96 0.0 6.4 0.00 0.00 0.00 56 1017.7
20260506155705 8 100 1.6 6.4 0.00 0.00 0.00 57 1017.9
20260506155200 8 120 0.0 6.4 0.00 0.00 0.00 58 1017.9
20260506154701 7 80 1.6 6.4 0.00 0.00 0.00 61 1018.1
20260506154201 7 102 0.0 6.4 0.00 0.00 0.00 59 1017.9
20260506153942 7 82 0.0 4.8 0.00 0.00 0.00 61 1017.9
20260506153156 7 115 0.0 6.4 0.00 0.00 0.00 62 1018.1
20260506152654 6 78 1.6 6.4 0.00 0.00 0.00 62 1018.2
20260506152152 6 134 0.0 4.8 0.00 0.00 0.00 62 1018.2
20260506151651 6 110 0.0 4.8 0.00 0.00 0.00 66 1018.1
20260506151147 6 146 0.0 4.8 0.00 0.00 0.00 66 1018.2
20260506150700 6 88 0.0 4.8 0.00 0.00 0.00 68 1018.3
20260506150403 5 102 0.0 4.8 0.00 0.00 0.00 68 1018.4
20260506145637 5 139 0.0 6.4 0.00 0.00 0.00 69 1018.4
20260506145133 5 139 0.0 6.4 0.00 0.00 0.00 73 1018.5
20260506144857 5 132 0.0 3.2 0.00 0.00 0.00 70 1018.5
20260506144133 5 123 0.0 3.2 0.00 0.00 0.00 71 1018.5
20260506143623 4 123 0.0 4.8 0.00 0.00 0.00 74 1018.6
20260506143341 4 124 0.0 4.8 0.00 0.00 0.00 73 1018.6
20260506142613 4 123 0.0 3.2 0.00 0.00 0.00 76 1018.6
20260506142113 3 124 0.0 3.2 0.00 0.00 0.00 76 1018.7
20260506141835 3 124 0.0 1.6 0.00 0.00 0.00 78 1018.7
20260506141109 3 124 0.0 0.0 0.00 0.00 0.00 77 1018.7
20260506140559 2 124 0.0 0.0 0.00 0.00 0.00 80 1018.7
20260506140319 2 124 0.0 0.0 0.00 0.00 0.00 80 1018.7
20260506135548 2 124 0.0 0.0 0.00 0.00 0.00 83 1018.8
20260506135309 1 124 0.0 0.0 0.00 0.00 0.00 88 1018.8
20260506134551 1 124 0.0 0.0 0.00 0.00 0.00 90 1018.8
20260506134046 0 124 0.0 0.0 0.00 0.00 0.00 91 1018.7
20260506133542 0 124 0.0 0.0 0.00 0.00 0.00 92 1018.7
20260506133037 0 124 0.0 0.0 0.00 0.00 0.00 91 1018.8
20260506132529 0 124 0.0 0.0 0.00 0.00 0.00 91 1018.7
20260506132025 0 124 0.0 0.0 0.00 0.00 0.00 90 1018.7
20260506131525 0 124 0.0 0.0 0.00 0.00 0.00 90 1018.7
20260506131025 -1 124 0.0 0.0 0.00 0.00 0.00 90 1018.6
20260506130523 -1 124 0.0 0.0 0.00 0.00 0.00 90 1018.7
20260506130020 -1 124 0.0 0.0 0.00 0.00 0.00 90 1018.8
20260506125520 -1 124 0.0 0.0 0.00 0.00 0.00 90 1018.7
20260506125015 -1 124 0.0 0.0 0.00 0.00 0.00 89 1018.7
20260506124509 -1 124 0.0 0.0 0.00 0.00 0.00 89 1018.7
20260506124004 -1 124 0.0 0.0 0.00 0.00 0.00 89 1018.7
20260506123501 -1 124 0.0 0.0 0.00 0.00 0.00 89 1018.7
20260506123001 -1 124 0.0 0.0 0.00 0.00 0.00 89 1018.8
20260506122501 -1 124 0.0 0.0 0.00 0.00 0.00 89 1018.7
20260506122004 -1 124 0.0 0.0 0.00 0.00 0.00 88 1018.6
20260506121500 -1 124 0.0 0.0 0.00 0.00 0.00 88 1018.7
20260506120956 -1 124 0.0 0.0 0.00 0.00 0.00 88 1018.7
20260506120457 -1 124 0.0 0.0 0.00 0.00 0.00 88 1018.7
20260506115957 -1 124 0.0 0.0 0.00 0.00 0.00 88 1018.7
20260506115500 -1 124 0.0 0.0 0.00 0.00 0.00 88 1018.7
20260506114953 -1 124 0.0 0.0 0.00 0.00 0.00 88 1018.7
20260506114452 -1 124 0.0 0.0 0.00 0.00 0.00 88 1018.7
20260506113952 -1 124 0.0 0.0 0.00 0.00 0.00 88 1018.7
20260506113938 -1 124 0.0 0.0 0.00 0.00 0.00 88 1018.7
20260506113214 -1 124 0.0 0.0 0.00 0.00 0.00 88 1018.7
20260506112928 -1 124 0.0 0.0 0.00 0.00 0.00 88 1018.8
20260506111934 -1 124 0.0 0.0 0.00 0.00 0.00 88 1018.8
20260506111429 -1 124 0.0 0.0 0.00 0.00 0.00 88 1018.8
20260506110929 -1 124 0.0 0.0 0.00 0.00 0.00 88 1018.8
20260506110424 -1 124 0.0 0.0 0.00 0.00 0.00 88 1018.8
20260506105926 -1 124 0.0 0.0 0.00 0.00 0.00 87 1018.8
20260506105421 -1 124 0.0 0.0 0.00 0.00 0.00 87 1018.8
20260506104919 -1 124 0.0 0.0 0.00 0.00 0.00 87 1018.8
20260506104417 -1 124 0.0 0.0 0.00 0.00 0.00 87 1018.9
20260506103900 -1 124 0.0 0.0 0.00 0.00 0.00 87 1018.8
20260506103354 0 124 0.0 0.0 0.00 0.00 0.00 87 1018.8
20260506102854 0 124 0.0 0.0 0.00 0.00 0.00 87 1018.7
20260506102345 0 124 0.0 0.0 0.00 0.00 0.00 87 1018.7
20260506101845 0 124 0.0 0.0 0.00 0.00 0.00 86 1018.7
20260506101340 0 124 0.0 0.0 0.00 0.00 0.00 86 1018.8
20260506101321 0 124 0.0 0.0 0.00 0.00 0.00 86 1018.8
20260506100554 0 124 0.0 0.0 0.00 0.00 0.00 86 1018.8
20260506095830 0 124 0.0 0.0 0.00 0.00 0.00 86 1018.8
20260506095546 0 124 0.0 0.0 0.00 0.00 0.00 86 1018.9
20260506095045 0 124 0.0 0.0 0.00 0.00 0.00 86 1018.9
20260506094321 0 124 0.0 0.0 0.00 0.00 0.00 86 1018.8
20260506093820 0 124 0.0 0.0 0.00 0.00 0.00 86 1018.9
20260506093324 0 124 0.0 0.0 0.00 0.00 0.00 86 1018.9
20260506092822 0 124 0.0 0.0 0.00 0.00 0.00 86 1018.8
20260506092317 0 124 0.0 0.0 0.00 0.00 0.00 85 1018.8
20260506091807 0 124 0.0 0.0 0.00 0.00 0.00 85 1018.9
20260506091304 0 124 0.0 0.0 0.00 0.00 0.00 85 1018.8
20260506090754 0 124 0.0 0.0 0.00 0.00 0.00 85 1018.8
20260506090515 0 124 0.0 0.0 0.00 0.00 0.00 84 1018.9
20260506085752 0 124 0.0 0.0 0.00 0.00 0.00 84 1018.8
20260506085241 0 124 0.0 0.0 0.00 0.00 0.00 84 1018.8
20260506085004 0 124 0.0 0.0 0.00 0.00 0.00 84 1018.8
20260506084242 0 124 0.0 0.0 0.00 0.00 0.00 84 1018.7
20260506083953 0 124 0.0 0.0 0.00 0.00 0.00 84 1018.8
20260506083222 0 124 0.0 0.0 0.00 0.00 0.00 84 1018.7
20260506082937 0 124 0.0 0.0 0.00 0.00 0.00 84 1018.8
20260506082215 0 124 0.0 0.0 0.00 0.00 0.00 84 1018.7
20260506081713 0 124 0.0 0.0 0.00 0.00 0.00 84 1018.7
20260506081648 0 124 0.0 0.0 0.00 0.00 0.00 84 1018.8
20260506080706 0 124 0.0 0.0 0.00 0.00 0.00 83 1018.8
20260506080154 0 124 0.0 0.0 0.00 0.00 0.00 83 1018.8
20260506073125 1 124 0.0 0.0 0.00 0.00 0.00 83 1019.1
20260506072831 1 124 0.0 0.0 0.00 0.00 0.00 83 1019.1
20260506072334 1 124 0.0 0.0 0.00 0.00 0.00 83 1019.1
20260506071609 1 124 0.0 0.0 0.00 0.00 0.00 89 1019.2
20260506071110 1 124 0.0 0.0 0.00 0.00 0.00 83 1019.1
20260506070610 1 124 0.0 0.0 0.00 0.00 0.00 83 1019.1
20260506070110 1 124 0.0 0.0 0.00 0.00 0.00 82 1019.1
20260506062046 1 124 0.0 0.0 0.00 0.00 0.00 81 1018.9
20260506061547 1 124 0.0 0.0 0.00 0.00 0.00 80 1018.9
20260506061042 1 124 0.0 0.0 0.00 0.00 0.00 80 1018.9
20260506060747 1 124 0.0 0.0 0.00 0.00 0.00 80 1018.8
20260506050922 2 124 0.0 1.6 0.00 0.00 0.00 77 1018.7
20260506050910 2 124 0.0 1.6 0.00 0.00 0.00 77 1018.8
20260506044413 2 123 0.0 3.2 0.00 0.00 0.00 74 1018.8
20260506043911 3 124 0.0 3.2 0.00 0.00 0.00 74 1018.7
20260506043408 3 123 0.0 3.2 0.00 0.00 0.00 73 1018.7
20260506042909 3 123 0.0 3.2 0.00 0.00 0.00 73 1018.8
20260506042408 3 124 0.0 0.0 0.00 0.00 0.00 72 1018.7
20260506041908 3 124 0.0 0.0 0.00 0.00 0.00 71 1018.7
20260506041629 3 124 0.0 0.0 0.00 0.00 0.00 70 1018.8
20260506040906 3 124 0.0 0.0 0.00 0.00 0.00 69 1018.7
20260506040400 4 124 0.0 0.0 0.00 0.00 0.00 69 1018.6
20260506035857 4 124 0.0 0.0 0.00 0.00 0.00 69 1018.6
20260506035355 4 124 0.0 0.0 0.00 0.00 0.00 68 1018.6
20260506035117 5 124 0.0 0.0 0.00 0.00 0.00 66 1018.6
20260506034355 5 124 0.0 0.0 0.00 0.00 0.00 66 1018.7
20260506033857 5 124 0.0 0.0 0.00 0.00 0.00 65 1018.6
20260506033350 6 124 0.0 0.0 0.00 0.00 0.00 63 1018.5
20260506033108 6 124 0.0 0.0 0.00 0.00 0.00 62 1018.5
20260506032341 6 124 0.0 0.0 0.00 0.00 0.00 61 1018.5
20260506031841 6 124 0.0 0.0 0.00 0.00 0.00 59 1018.5
20260506031605 7 124 0.0 0.0 0.00 0.00 0.00 58 1018.5
20260506030844 7 124 0.0 0.0 0.00 0.00 0.00 58 1018.4
20260506030341 8 124 0.0 0.0 0.00 0.00 0.00 57 1018.4
20260506025836 8 124 0.0 0.0 0.00 0.00 0.00 56 1018.3
20260506025335 8 124 0.0 0.0 0.00 0.00 0.00 54 1018.3
20260506024832 8 124 0.0 0.0 0.00 0.00 0.00 53 1018.3
20260506024333 9 124 0.0 0.0 0.00 0.00 0.00 53 1018.2
20260506023827 9 124 0.0 0.0 0.00 0.00 0.00 52 1018.3
20260506023553 9 124 0.0 0.0 0.00 0.00 0.00 48 1018.2
20260506022825 9 124 0.0 0.0 0.00 0.00 0.00 48 1018.2
20260506022323 9 124 0.0 0.0 0.00 0.00 0.00 46 1018.1
20260506021823 10 124 0.0 0.0 0.00 0.00 0.00 46 1018.1
20260506021324 10 124 0.0 3.2 0.00 0.00 0.00 46 1018.1
20260506021308 10 124 0.0 4.8 0.00 0.00 0.00 44 1018.1